CW0962 Weather Reports


time (UTC)temp
C
wind
direction
speed
KPH
gust
KPH
rain 1hr
cm
rain 24hr
cm
rain mn
cm
humidity
%
barometer
mb
20260507075459 13 217 0.0 0.0 0.00 0.79 0.00 91 1003.9
20260507074958 13 217 0.0 0.0 0.00 0.79 0.00 91 1003.9
20260507074459 13 217 0.0 0.0 0.00 0.79 0.00 91 1003.7
20260507073958 13 217 0.0 0.0 0.00 0.79 0.00 91 1003.8
20260507073458 13 217 0.0 3.2 0.00 0.79 0.00 91 1003.8
20260507072958 13 220 0.0 3.2 0.00 0.79 0.00 91 1003.9
20260507072458 13 227 0.0 1.6 0.00 0.79 0.00 91 1003.8
20260507071959 13 227 0.0 3.2 0.00 0.79 0.00 91 1003.8
20260507071530 13 227 0.0 3.2 0.00 0.79 0.00 91 1003.7
20260507070512 13 242 0.0 8.0 0.00 0.79 0.00 91 1003.7
20260507070009 13 178 0.0 8.0 0.00 0.79 0.00 91 1003.9
20260507065006 13 205 0.0 1.6 0.00 0.79 0.00 91 1004.1
20260507064514 13 205 0.0 8.0 0.00 0.79 0.00 91 1004.0
20260507064021 13 205 0.0 8.0 0.00 0.79 0.00 91 1003.9
20260507063028 13 200 1.6 8.0 0.00 0.79 0.00 91 1003.7
20260507062517 13 218 1.6 9.7 0.00 0.79 0.00 90 1003.8
20260507061511 13 183 0.0 9.7 0.00 0.79 0.00 90 1004.1
20260507061008 13 183 1.6 9.7 0.00 0.79 0.00 90 1004.2
20260507060514 13 183 3.2 9.7 0.00 0.79 0.00 90 1004.2
20260507060000 13 196 3.2 11.3 0.00 0.79 0.00 90 1004.3
20260507055458 13 182 3.2 11.3 0.00 0.79 0.00 90 1004.5
20260507055000 13 178 3.2 11.3 0.00 0.79 0.00 90 1004.3
20260507054458 13 180 3.2 12.9 0.00 0.79 0.00 90 1004.3
20260507054004 13 219 4.8 12.9 0.00 0.79 0.00 90 1004.5
20260507053511 13 212 4.8 14.5 0.00 0.79 0.00 90 1004.5
20260507053012 13 190 4.8 14.5 0.00 0.79 0.00 90 1004.5
20260507052500 13 196 4.8 12.9 0.00 0.79 0.00 90 1004.4
20260507052007 13 199 4.8 12.9 0.00 0.79 0.00 90 1004.7
20260507051507 13 190 6.4 12.9 0.00 0.79 0.00 90 1004.7
20260507051018 13 194 6.4 12.9 0.00 0.79 0.00 90 1004.8
20260507050007 13 188 4.8 12.9 0.00 0.79 0.00 90 1004.8
20260507045459 13 202 3.2 14.5 0.00 0.79 0.00 90 1004.9
20260507043958 13 207 6.4 22.5 0.00 0.79 0.00 90 1004.7
20260507043521 13 176 6.4 22.5 0.00 0.79 0.00 90 1004.7
20260507043010 13 207 6.4 22.5 0.00 0.79 0.00 90 1004.8
20260507042459 13 188 6.4 16.1 0.00 0.79 0.00 90 1004.7
20260507042001 13 166 6.4 24.1 0.00 0.79 0.00 90 1004.7
20260507041510 13 239 4.8 24.1 0.00 0.79 0.00 90 1004.7
20260507041023 13 209 6.4 17.7 0.00 0.79 0.00 90 1004.6
20260507040501 13 248 6.4 17.7 0.00 0.79 0.00 90 1004.7
20260507035501 13 207 8.0 24.1 0.00 0.79 0.79 90 1004.7
20260507035005 13 170 8.0 22.5 0.00 0.79 0.79 90 1004.8
20260507034018 13 200 8.0 19.3 0.00 0.79 0.79 90 1005.0
20260507033507 13 164 8.0 25.7 0.00 0.79 0.79 90 1005.0
20260507033011 13 207 9.7 30.6 0.00 0.79 0.79 90 1005.0
20260507032502 13 196 9.7 30.6 0.00 0.79 0.79 90 1004.9
20260507032009 13 266 9.7 24.1 0.00 0.79 0.79 90 1004.8
20260507031501 13 206 9.7 25.7 0.00 0.79 0.79 90 1004.7
20260507030505 13 170 8.0 25.7 0.00 0.79 0.79 90 1004.6
20260507030002 13 134 8.0 22.5 0.00 0.79 0.79 90 1004.4
20260507025532 13 197 9.7 22.5 0.00 0.79 0.79 90 1004.2
20260507025006 13 180 9.7 24.1 0.00 0.79 0.79 90 1004.3
20260507024005 13 235 9.7 25.7 0.00 0.79 0.79 90 1004.4
20260507023527 13 186 9.7 25.7 0.00 0.79 0.79 90 1004.5
20260507023009 13 180 6.4 25.7 0.00 0.79 0.79 90 1004.6
20260507022523 13 162 8.0 22.5 0.00 0.79 0.79 90 1004.7
20260507021505 13 160 8.0 20.9 0.00 0.79 0.79 90 1004.9
20260507021011 13 192 11.3 25.7 0.00 0.79 0.79 90 1005.0
20260507020503 13 172 11.3 25.7 0.00 0.79 0.79 90 1005.0
20260507020028 13 229 9.7 20.9 0.00 0.79 0.79 90 1005.1
20260507015504 13 167 9.7 24.1 0.00 0.79 0.79 90 1005.3
20260507015001 13 212 9.7 24.1 0.03 0.79 0.79 90 1005.3
20260507014516 13 163 9.7 22.5 0.03 0.79 0.79 90 1005.4
20260507014009 13 170 11.3 22.5 0.03 0.79 0.79 90 1005.5
20260507013513 13 176 9.7 22.5 0.03 0.79 0.79 90 1005.5
20260507013009 13 182 9.7 25.7 0.03 0.79 0.79 90 1005.5
20260507012505 13 175 9.7 25.7 0.05 0.79 0.79 89 1005.6
20260507011505 14 158 9.7 37.0 0.13 0.79 0.79 90 1005.5
20260507011002 14 115 11.3 37.0 0.13 0.79 0.79 90 1005.6
20260507010008 14 160 9.7 32.2 0.15 0.79 0.79 90 1005.5
20260507005510 14 227 9.7 32.2 0.18 0.79 0.79 90 1005.6
20260507005007 14 204 11.3 32.2 0.18 0.76 0.76 90 1005.4
20260507004510 14 177 12.9 40.2 0.20 0.76 0.76 89 1005.6
20260507004002 14 155 12.9 40.2 0.25 0.76 0.76 90 1005.6
20260507003500 14 161 11.3 40.2 0.28 0.76 0.76 90 1005.6
20260507003023 14 177 9.7 25.7 0.30 0.76 0.76 90 1005.6
20260507002505 14 178 9.7 24.1 0.30 0.74 0.74 90 1005.6
20260507002005 13 196 9.7 25.7 0.33 0.69 0.69 89 1005.7
20260507001004 13 200 11.3 35.4 0.36 0.64 0.64 89 1005.6
20260507000501 13 226 9.7 29.0 0.38 0.64 0.64 89 1005.6
20260506235504 13 188 9.7 20.9 0.43 0.61 0.61 89 1005.5
20260506234504 13 195 11.3 24.1 0.43 0.53 0.53 89 1005.7
20260506234004 13 161 9.7 24.1 0.38 0.48 0.48 89 1005.7
20260506233510 13 223 9.7 22.5 0.38 0.48 0.48 89 1005.5
20260506233004 13 182 11.3 41.8 0.38 0.46 0.46 89 1005.5
20260506232551 13 205 12.9 41.8 0.38 0.43 0.43 89 1005.5
20260506232003 13 178 14.5 32.2 0.30 0.36 0.36 88 1005.4
20260506231503 13 177 12.9 35.4 0.25 0.30 0.30 88 1005.6
20260506230504 13 190 11.3 32.2 0.20 0.25 0.25 88 1005.6
20260506230005 13 201 11.3 30.6 0.15 0.20 0.20 88 1005.7
20260506225522 13 96 11.3 30.6 0.13 0.18 0.18 87 1005.6
20260506225000 13 166 11.3 22.5 0.10 0.13 0.13 87 1005.6
20260506224504 14 178 11.3 22.5 0.08 0.10 0.10 87 1005.6
20260506224010 14 163 12.9 30.6 0.08 0.10 0.10 86 1005.7
20260506223507 14 195 12.9 30.6 0.08 0.10 0.10 86 1005.7
20260506223022 14 258 12.9 37.0 0.05 0.08 0.08 85 1005.9
20260506222501 14 143 12.9 38.6 0.03 0.05 0.05 85 1006.0
20260506222012 15 228 12.9 38.6 0.05 0.05 0.05 85 1006.0
20260506221512 15 148 11.3 40.2 0.05 0.05 0.05 85 1005.9
20260506221001 15 243 12.9 40.2 0.05 0.05 0.05 85 1006.0
20260506220510 15 152 12.9 38.6 0.05 0.05 0.05 84 1006.0
20260506220009 15 174 12.9 32.2 0.05 0.05 0.05 84 1006.0
20260506215500 15 212 11.3 32.2 0.05 0.05 0.05 84 1006.0
20260506214503 15 155 12.9 38.6 0.03 0.03 0.03 83 1005.9
20260506213514 15 157 11.3 29.0 0.03 0.03 0.03 83 1006.1
20260506213025 15 194 11.3 29.0 0.03 0.03 0.03 82 1006.2
20260506212510 15 122 12.9 30.6 0.03 0.03 0.03 81 1006.3
20260506211002 16 146 11.3 29.0 0.00 0.00 0.00 77 1006.3
20260506210506 16 218 11.3 32.2 0.00 0.00 0.00 76 1006.4
20260506205459 16 167 12.9 38.6 0.00 0.00 0.00 76 1006.4
20260506205009 16 167 12.9 38.6 0.00 0.00 0.00 76 1006.3
20260506204516 16 154 11.3 32.2 0.00 0.00 0.00 75 1006.5
20260506204001 16 246 12.9 32.2 0.00 0.00 0.00 75 1006.4
20260506203513 16 106 11.3 30.6 0.00 0.00 0.00 75 1006.4
20260506202514 16 144 12.9 40.2 0.00 0.00 0.00 76 1006.6
20260506202026 16 177 11.3 25.7 0.00 0.00 0.00 77 1006.6
20260506201004 16 128 11.3 30.6 0.00 0.00 0.00 77 1006.8
20260506200504 16 141 11.3 30.6 0.00 0.00 0.00 74 1006.9
20260506195504 16 188 12.9 30.6 0.00 0.00 0.00 72 1007.0
20260506195000 17 281 12.9 30.6 0.00 0.00 0.00 72 1007.1
20260506194501 17 197 12.9 30.6 0.00 0.00 0.00 72 1007.0
20260506194000 17 220 12.9 30.6 0.00 0.00 0.00 72 1007.1
20260506193002 17 173 12.9 29.0 0.00 0.00 0.00 71 1007.1
20260506191005 17 150 12.9 38.6 0.00 0.00 0.00 71 1007.1
20260506190536 17 173 12.9 38.6 0.00 0.00 0.00 71 1007.1
20260506190007 17 157 14.5 35.4 0.00 0.00 0.00 70 1007.1
20260506185517 17 178 14.5 37.0 0.00 0.00 0.00 70 1007.2
20260506185027 17 203 14.5 37.0 0.00 0.00 0.00 69 1007.2
20260506184501 17 207 14.5 32.2 0.00 0.00 0.00 70 1007.3
20260506184003 18 236 14.5 45.1 0.00 0.00 0.00 69 1007.3
20260506183459 18 143 11.3 45.1 0.00 0.00 0.00 68 1007.4
20260506183011 18 144 12.9 40.2 0.00 0.00 0.00 68 1007.4
20260506182507 18 245 11.3 40.2 0.00 0.00 0.00 68 1007.5
20260506182005 18 191 9.7 22.5 0.00 0.00 0.00 67 1007.7
20260506181002 18 195 11.3 33.8 0.00 0.00 0.00 67 1007.7
20260506180506 19 175 12.9 33.8 0.00 0.00 0.00 65 1008.0
20260506180007 19 125 12.9 37.0 0.00 0.00 0.00 65 1008.0
20260506175500 19 197 16.1 43.5 0.00 0.00 0.00 64 1008.2
20260506175001 20 172 17.7 43.5 0.00 0.00 0.00 64 1008.1
20260506174459 20 207 12.9 43.5 0.00 0.00 0.00 64 1008.2
20260506174000 20 181 11.3 37.0 0.00 0.00 0.00 64 1008.2
20260506172959 20 47 16.1 35.4 0.00 0.00 0.00 64 1008.1
20260506172500 19 142 17.7 40.2 0.00 0.00 0.00 65 1008.1
20260506172000 19 135 16.1 40.2 0.00 0.00 0.00 67 1008.2
20260506171500 19 201 14.5 35.4 0.00 0.00 0.00 65 1008.2
20260506171000 18 140 16.1 35.4 0.00 0.00 0.00 67 1008.3
20260506170500 19 159 12.9 33.8 0.00 0.00 0.00 66 1008.4
20260506165459 19 132 12.9 33.8 0.00 0.00 0.00 65 1008.7
20260506165000 20 173 14.5 37.0 0.00 0.00 0.00 66 1008.8
20260506164500 19 200 17.7 37.0 0.00 0.00 0.00 66 1008.6
20260506163500 20 251 12.9 37.0 0.00 0.00 0.00 64 1008.7
20260506163001 20 170 14.5 38.6 0.00 0.00 0.00 64 1008.9
20260506162001 20 183 14.5 40.2 0.00 0.00 0.00 63 1009.0
20260506161500 20 186 14.5 40.2 0.00 0.00 0.00 63 1009.2
20260506161000 20 205 14.5 40.2 0.00 0.00 0.00 61 1009.0
20260506160459 21 227 14.5 40.2 0.00 0.00 0.00 62 1009.0
20260506160001 20 234 12.9 38.6 0.00 0.00 0.00 63 1009.0
20260506155459 21 171 14.5 41.8 0.00 0.00 0.00 63 1009.2
20260506154459 20 109 14.5 45.1 0.00 0.00 0.00 63 1009.4
20260506154010 20 148 14.5 45.1 0.00 0.00 0.00 63 1009.4
20260506153507 20 201 14.5 38.6 0.00 0.00 0.00 63 1009.4
20260506153000 19 192 16.1 45.1 0.00 0.00 0.00 65 1009.7
20260506152500 20 173 16.1 45.1 0.00 0.00 0.00 66 1009.7
20260506152001 19 203 14.5 37.0 0.00 0.00 0.00 66 1009.6
20260506150959 19 174 11.3 32.2 0.00 0.00 0.00 65 1009.5
20260506150459 19 170 11.3 25.7 0.00 0.00 0.00 66 1009.3
20260506145457 19 167 14.5 32.2 0.00 0.00 0.00 66 1009.4
20260506144959 20 220 14.5 43.5 0.00 0.00 0.00 65 1009.4
20260506144458 20 194 12.9 43.5 0.00 0.00 0.00 63 1009.5
20260506143959 20 146 12.9 40.2 0.00 0.00 0.00 64 1009.5
20260506143500 20 130 14.5 40.2 0.00 0.00 0.00 63 1009.4
20260506142959 19 89 17.7 41.8 0.00 0.00 0.00 64 1009.3
20260506142458 20 201 14.5 41.8 0.00 0.00 0.00 62 1009.3
20260506140959 20 42 14.5 32.2 0.00 0.00 0.00 63 1009.4
20260506140004 20 251 12.9 29.0 0.00 0.00 0.00 64 1009.7
20260506135500 20 195 12.9 43.5 0.00 0.00 0.00 65 1009.8
20260506135000 19 168 12.9 43.5 0.00 0.00 0.00 64 1010.0
20260506132002 18 188 11.3 32.2 0.00 0.00 0.00 69 1009.8
20260506131032 18 202 11.3 32.2 0.00 0.00 0.00 70 1009.8
20260506130501 18 181 14.5 35.4 0.00 0.00 0.00 70 1009.6
20260506130008 18 242 14.5 37.0 0.00 0.00 0.00 70 1009.6
20260506125501 18 125 14.5 37.0 0.00 0.00 0.00 71 1009.5
20260506125005 17 188 14.5 35.4 0.00 0.00 0.00 72 1009.6
20260506124512 17 168 12.9 32.2 0.00 0.00 0.00 74 1009.7
20260506124008 16 229 12.9 38.6 0.00 0.00 0.00 75 1009.8
20260506123544 16 150 14.5 38.6 0.00 0.00 0.00 75 1010.0
20260506123004 16 200 16.1 46.7 0.00 0.00 0.00 75 1009.9
20260506122500 16 189 12.9 46.7 0.00 0.00 0.00 75 1009.9
20260506121501 17 194 14.5 38.6 0.00 0.00 0.00 74 1010.1
20260506120503 16 157 12.9 43.5 0.00 0.00 0.00 78 1010.2
20260506114505 15 146 12.9 32.2 0.00 0.00 0.00 79 1010.5
20260506114040 15 160 11.3 25.7 0.00 0.00 0.00 80 1010.6
20260506113531 15 175 12.9 35.4 0.00 0.00 0.00 80 1010.6
20260506112510 15 158 11.3 35.4 0.00 0.00 0.00 80 1010.5
20260506112002 15 136 9.7 37.0 0.00 0.00 0.00 80 1010.4
20260506111510 15 209 9.7 37.0 0.00 0.00 0.00 80 1010.4
20260506111012 15 160 11.3 35.4 0.00 0.00 0.00 80 1010.4
20260506110529 15 167 9.7 22.5 0.00 0.00 0.00 80 1010.5
20260506110004 15 169 9.7 24.1 0.00 0.00 0.00 81 1010.4
20260506105510 15 211 12.9 30.6 0.00 0.00 0.00 81 1010.4
20260506105004 15 208 12.9 30.6 0.00 0.00 0.00 81 1010.4
20260506104508 15 170 11.3 33.8 0.00 0.00 0.00 81 1010.4
20260506103509 15 176 11.3 24.1 0.00 0.00 0.00 82 1010.4
20260506103023 15 184 11.3 35.4 0.00 0.00 0.00 81 1010.3
20260506102502 15 222 11.3 35.4 0.00 0.00 0.00 81 1010.4
20260506102005 15 152 11.3 25.7 0.00 0.00 0.00 82 1010.2
20260506101515 15 199 12.9 32.2 0.00 0.00 0.00 82 1010.2
20260506100503 14 132 9.7 22.5 0.00 0.00 0.00 82 1010.0
20260506100008 14 156 9.7 24.1 0.00 0.00 0.00 82 1010.1
20260506095502 14 155 9.7 33.8 0.00 0.00 0.00 83 1010.1
20260506094511 14 169 9.7 33.8 0.00 0.00 0.00 83 1010.2
20260506094001 14 121 9.7 20.9 0.00 0.00 0.00 83 1010.2
20260506093514 14 152 9.7 33.8 0.00 0.00 0.00 82 1010.1
20260506093006 14 199 11.3 33.8 0.00 0.00 0.00 82 1010.2
20260506092502 15 201 11.3 24.1 0.00 0.00 0.00 82 1010.3
20260506091504 15 129 12.9 32.2 0.00 0.00 0.00 82 1010.2
20260506090502 15 183 12.9 32.2 0.00 0.00 0.00 82 1010.3
20260506090025 15 128 11.3 24.1 0.00 0.00 0.00 82 1010.3
20260506084505 15 153 11.3 25.7 0.00 0.00 0.00 82 1010.2
20260506084004 15 155 12.9 30.6 0.00 0.00 0.00 82 1010.3
20260506083006 15 178 12.9 25.7 0.00 0.00 0.00 82 1010.3
20260506082001 15 198 12.9 33.8 0.00 0.00 0.00 82 1010.4
20260506081503 15 209 14.5 38.6 0.00 0.00 0.00 82 1010.4
20260506081001 14 171 12.9 38.6 0.00 0.00 0.00 82 1010.3
20260506080509 15 159 12.9 38.6 0.00 0.00 0.00 81 1010.3